Vorticity
5 8 6 4 29 13 3 6 2 4 3 14 4 4 6 4 10 9 7 3 4 8 -3 23 5 1 7 7 7 5 5 12 15 19 1 3 3 8 12 8 6 6 7
1 1 1 1 -5 -1 -0 1 1 6 8 5 4 8 2 2 3 4 4 4 4 5 6 2 12 11 30 15 3 1 1 3 11 47 10 2 2 1 3 8 8 7 5
-10 6 1 2 -2 -1 0 2 1 0 2 4 8 6 2 1 3 3 4 4 5 6 7 4 5 2 4 14 4 5 4 4 8 1 5 10 2 4 1 4 4 9 9
-0 4 10 5 5 3 5 3 5 6 9 6 8 9 9 6 6 8 6 6 5 5 7 6 3 3 5 5 3 1 3 7 8 11 10 -21 -1 5 2 7 2 4 7
6 3 8 3 6 3 5 3 -1 7 8 2 -5 11 7 7 8 5 6 8 7 6 5 5 6 8 5 4 6 9 9 9 13 8 6 2 2 11 -9 1 3 2 4
29 24 48 31 -4 -5 -6 -1 0 4 1 7 -1 13 -9 7 7 3 3 4 4 5 5 3 4 5 5 5 5 4 3 4 4 4 4 6 5 1 1 5 3 2 1
8 4 2 7 32 -10 26 37 33 22 -18 16 -2 -0 -1 10 -0 1 1 2 10 4 3 1 5 5 6 5 5 8 7 4 2 3 6 5 5 5 4 5 -1 1 3
14 8 6 6 5 7 8 11 7 12 19 33 12 17 1 1 14 1 1 4 3 1 6 4 4 4 6 7 4 7 9 8 7 7 5 4 5 6 6 5 4 4 -1
7 13 12 10 7 6 12 18 6 16 2 10 19 28 30 1 10 4 -3 3 5 9 14 2 1 1 3 2 7 6 4 6 8 8 7 7 5 6 6 6 7 5 2
7 5 8 11 15 16 18 19 14 11 12 6 7 9 17 26 23 22 23 9 9 15 1 1 17 10 4 3 3 5 5 6 7 5 6 7 6 4 3 3 5 6 11
14 12 8 6 8 12 16 14 16 18 20 7 -5 9 11 10 11 19 21 28 26 16 6 6 3 6 8 6 4 -2 4 6 5 5 6 5 6 7 4 3 1 6 -4
12 13 12 12 9 8 9 7 7 11 10 16 22 16 5 1 4 12 7 4 8 12 16 20 21 19 15 15 5 8 4 7 10 9 7 7 4 5 8 7 5 5 -6
12 15 12 10 7 7 7 8 8 8 8 8 5 7 13 18 17 10 9 4 11 8 10 11 10 12 14 18 20 10 13 16 10 10 10 8 6 5 7 5 3 -1 1
9 8 10 13 13 12 11 11 9 7 9 10 7 5 5 6 9 10 10 12 8 11 10 10 11 8 10 12 11 15 19 15 8 9 13 11 13 1 13 14 4 4 6
11 9 7 7 7 7 7 8 7 6 6 6 6 7 9 8 7 6 6 8 8 3 -3 9 10 11 10 9 9 9 14 10 7 9 13 11 7 10 19 4 6 9 10
7 7 8 7 8 7 6 5 5 6 6 6 4 4 6 8 11 13 12 14 13 11 7 7 13 15 16 14 12 4 6 7 8 10 10 11 14 14 6 -6 11 14 5
6 4 4 5 4 6 9 10 9 7 6 6 6 9 8 6 5 7 9 11 13 12 14 10 8 12 13 13 14 14 5 6 9 9 9 11 11 11 14 10 14 3 -3
5 7 4 2 4 8 12 13 12 12 11 13 13 9 8 10 11 9 5 8 10 10 11 12 10 13 9 7 9 9 9 10 11 11 11 11 12 11 10 10 15 11 5
6 4 6 11 14 14 16 15 13 12 12 16 16 19 20 17 14 9 11 10 8 7 9 9 10 10 11 9 8 8 8 8 8 6 7 9 9 10 11 10 6 7 9
3 8 13 15 19 20 20 19 17 16 18 18 18 18 18 17 20 23 17 13 13 11 9 9 10 9 9 12 10 10 9 9 10 10 8 7 7 7 7 8 7 6 5
11 15 19 25 26 25 23 23 22 22 22 18 16 17 17 17 17 16 18 22 16 14 15 14 13 13 11 11 12 11 9 9 8 8 8 7 7 8 7 9 10 11 11
17 24 29 24 21 20 20 19 18 19 20 20 21 19 18 18 17 14 12 12 13 19 17 14 16 16 14 11 11 12 13 12 10 10 10 9 10 10 10 10 10 10 9
24 28 22 20 18 13 10 9 9 10 10 10 10 10 10 12 14 16 18 17 15 10 11 15 16 17 23 17 11 13 13 14 13 13 10 10 12 9 9 10 10 11 10
28 21 18 12 11 10 11 14 16 17 17 18 19 20 20 16 14 12 8 9 10 13 8 13 13 11 13 19 18 18 14 15 17 15 17 17 11 14 13 16 15 16 16
21 16 12 9 11 17 21 23 24 24 24 23 22 20 18 19 19 20 25 21 14 11 10 9 11 16 12 13 13 15 17 18 17 15 16 19 16 15 15 16 18 17 15
15 9 9 11 20 22 28 20 26 29 30 28 24 20 20 22 20 18 19 18 20 23 22 18 13 11 18 14 12 15 15 16 18 17 17 21 17 16 16 14 13 16 14
Height
5829 5829 5830 5830 5830 5829 5827 5826 5825 5825 5823 5823 5824 5825 5825 5825 5825 5825 5824 5820 5817 5819 5806 5818 5824 5824 5827 5829 5832 5833 5836 5835 5834 5835 5838 5841 5842 5842 5843 5843 5845 5847 5847
5824 5822 5822 5821 5820 5819 5818 5818 5817 5818 5818 5817 5816 5816 5816 5816 5818 5817 5814 5814 5815 5814 5816 5817 5817 5818 5819 5820 5823 5826 5830 5830 5831 5830 5833 5835 5837 5838 5839 5839 5840 5842 5843
5815 5814 5813 5811 5811 5810 5809 5809 5809 5808 5808 5807 5808 5807 5806 5806 5807 5807 5806 5804 5805 5808 5808 5808 5809 5811 5813 5813 5814 5817 5822 5824 5826 5827 5828 5829 5831 5832 5833 5835 5835 5837 5839
5805 5803 5803 5802 5800 5800 5799 5798 5799 5798 5797 5797 5797 5796 5796 5796 5796 5796 5795 5795 5795 5797 5799 5801 5802 5804 5805 5807 5808 5810 5812 5816 5817 5820 5822 5821 5824 5826 5828 5830 5831 5832 5833
5792 5790 5790 5790 5789 5787 5786 5786 5785 5785 5785 5784 5785 5785 5785 5785 5785 5783 5785 5786 5786 5786 5788 5790 5793 5796 5796 5797 5800 5803 5805 5807 5809 5810 5813 5815 5816 5819 5822 5823 5824 5826 5828
5783 5778 5776 5777 5775 5774 5771 5771 5770 5770 5770 5771 5770 5771 5772 5772 5771 5772 5772 5773 5773 5774 5775 5778 5781 5784 5785 5788 5790 5792 5795 5797 5799 5802 5804 5806 5809 5811 5814 5817 5818 5820 5822
5771 5769 5766 5764 5762 5759 5758 5754 5754 5754 5754 5753 5755 5756 5756 5757 5757 5758 5758 5759 5760 5762 5763 5765 5768 5769 5772 5776 5779 5781 5784 5787 5788 5791 5793 5799 5799 5802 5805 5808 5811 5813 5816
5758 5756 5753 5751 5750 5747 5744 5742 5739 5738 5736 5734 5735 5736 5739 5741 5739 5739 5742 5743 5745 5747 5748 5749 5752 5756 5757 5760 5763 5767 5770 5772 5774 5778 5781 5786 5788 5791 5794 5797 5801 5804 5806
5746 5742 5738 5735 5733 5732 5731 5729 5726 5723 5721 5718 5716 5718 5720 5723 5723 5721 5724 5725 5728 5730 5731 5731 5734 5739 5744 5747 5749 5751 5754 5757 5760 5763 5768 5773 5776 5779 5782 5787 5790 5793 5796
5735 5730 5724 5721 5719 5717 5714 5712 5711 5709 5707 5705 5703 5701 5702 5702 5704 5707 5704 5707 5710 5712 5715 5715 5717 5721 5725 5729 5732 5734 5736 5741 5745 5748 5753 5759 5762 5765 5769 5775 5778 5781 5785
5722 5718 5713 5709 5706 5702 5699 5696 5693 5691 5690 5689 5687 5686 5685 5684 5685 5687 5692 5687 5691 5694 5696 5698 5700 5702 5705 5709 5713 5717 5721 5724 5728 5732 5737 5742 5747 5751 5754 5760 5765 5769 5771
5710 5705 5701 5696 5691 5687 5684 5682 5679 5676 5674 5672 5671 5670 5669 5668 5667 5667 5671 5675 5673 5673 5677 5679 5680 5681 5685 5689 5694 5698 5703 5707 5709 5715 5720 5724 5729 5734 5738 5743 5749 5753 5756
5699 5693 5688 5683 5678 5673 5670 5666 5663 5661 5658 5657 5655 5653 5651 5650 5650 5650 5651 5654 5658 5660 5658 5660 5661 5664 5665 5669 5673 5678 5683 5687 5691 5695 5700 5705 5709 5714 5718 5724 5730 5736 5741
5688 5683 5677 5672 5667 5661 5655 5650 5646 5642 5640 5639 5637 5636 5635 5633 5632 5631 5632 5632 5637 5641 5642 5641 5638 5642 5646 5650 5653 5658 5664 5668 5672 5676 5679 5685 5692 5697 5702 5707 5713 5719 5724
5676 5670 5664 5658 5653 5647 5641 5636 5631 5626 5621 5617 5615 5614 5614 5614 5613 5612 5612 5612 5612 5619 5624 5624 5621 5621 5626 5630 5634 5639 5643 5646 5649 5654 5660 5667 5672 5677 5683 5689 5694 5700 5706
5662 5656 5649 5643 5636 5630 5624 5617 5612 5607 5603 5599 5595 5591 5589 5588 5588 5588 5589 5589 5591 5593 5599 5605 5600 5601 5603 5607 5612 5619 5624 5628 5630 5634 5640 5648 5655 5659 5663 5668 5676 5681 5686
5648 5641 5633 5625 5617 5609 5602 5594 5588 5582 5577 5574 5572 5570 5567 5564 5563 5563 5563 5565 5566 5567 5571 5579 5583 5581 5583 5586 5590 5597 5603 5607 5611 5614 5618 5626 5634 5641 5645 5649 5654 5661 5667
5632 5623 5613 5604 5593 5582 5572 5563 5557 5552 5547 5543 5541 5541 5541 5539 5537 5536 5536 5538 5540 5543 5545 5550 5558 5561 5563 5566 5570 5573 5579 5586 5590 5594 5598 5604 5611 5619 5626 5631 5635 5641 5647
5613 5601 5589 5577 5564 5553 5543 5532 5524 5519 5515 5511 5509 5507 5507 5507 5509 5510 5510 5511 5513 5515 5518 5521 5529 5534 5540 5544 5548 5552 5557 5563 5568 5572 5578 5583 5590 5595 5602 5609 5615 5620 5626
5592 5579 5565 5551 5537 5524 5512 5502 5494 5489 5485 5482 5479 5477 5476 5474 5475 5479 5481 5484 5485 5487 5491 5495 5500 5506 5512 5519 5523 5529 5534 5538 5544 5549 5557 5563 5568 5574 5581 5587 5594 5600 5604
5568 5553 5537 5522 5509 5496 5485 5475 5467 5461 5457 5454 5452 5449 5448 5448 5448 5447 5448 5454 5456 5458 5464 5468 5474 5480 5485 5491 5497 5503 5509 5514 5519 5526 5533 5540 5546 5553 5559 5564 5571 5576 5581
5544 5527 5511 5497 5486 5474 5462 5452 5441 5436 5432 5427 5427 5423 5420 5420 5421 5422 5422 5423 5424 5428 5437 5441 5449 5455 5461 5463 5468 5475 5482 5489 5497 5502 5507 5516 5520 5529 5536 5541 5546 5551 5557
5520 5503 5490 5478 5466 5454 5441 5429 5419 5412 5405 5402 5398 5396 5396 5394 5393 5393 5395 5396 5399 5401 5407 5417 5421 5431 5434 5438 5443 5449 5454 5462 5472 5476 5481 5493 5496 5506 5509 5514 5520 5526 5532
5498 5484 5472 5459 5446 5433 5418 5404 5392 5383 5376 5370 5366 5364 5363 5366 5365 5363 5365 5370 5374 5380 5385 5390 5397 5405 5409 5413 5418 5424 5432 5438 5447 5455 5457 5471 5472 5482 5483 5490 5497 5503 5508
5481 5467 5454 5439 5423 5409 5392 5377 5362 5353 5345 5340 5335 5334 5333 5335 5337 5335 5336 5341 5347 5357 5362 5367 5372 5380 5386 5392 5398 5402 5411 5417 5428 5433 5437 5445 5454 5457 5459 5471 5476 5480 5484
5462 5449 5437 5418 5399 5383 5367 5352 5337 5323 5316 5311 5308 5307 5307 5305 5308 5312 5312 5315 5322 5334 5338 5343 5348 5356 5365 5372 5377 5384 5390 5397 5406 5413 5418 5424 5429 5432 5440 5451 5457 5459 5462